Regional Weather Roundup
Issued by NWS Little Rock, AR

Home | Current Version | Previous Version | Text Only | Print | Product List | Glossary Off
Versions: 1 2 3 4 5 6 7 8 9 10 11 12 13 14 15 16 17 18 19 20 21 22 23 24 25 26 27

000
ASUS44 KLZK 270205
RWRLZK

WEATHER ROUNDUP FOR ARKANSAS
NATIONAL WEATHER SERVICE LITTLE ROCK AR
900 PM CDT TUE JUL 26 2016

NOTE: "FAIR" INDICATES FEW OR NO CLOUDS BELOW 12,000 FEET WITH NO
SIGNIFICANT WEATHER AND/OR OBSTRUCTIONS TO VISIBILITY.

ARZ001-003-010-029-270300-
NORTHWEST ARKANSAS

CITY           SKY/WX    TMP DP  RH WIND       PRES   REMARKS
FAYETTEVILLE   LGT RAIN  71  71 100 CALM      29.98F
FORT SMITH     CLOUDY    79  72  79 E6        29.93F
HARRISON       CLOUDY    75  74  96 CALM      30.00F FOG
BENTONVILLE    CLOUDY    73  70  88 S7        29.98F
ROGERS         CLOUDY    74  72  93 SE3       29.99F
SILOAM SPGS    CLOUDY    73  64  73 SE10      29.98F
HIGHFILL       CLOUDY    75  74  96 SE12      29.97F
SPRINGDALE     PTCLDY    73  73 100 CALM      30.01F
$$

ARZ004-005-016-270300-
NORTH CENTRAL ARKANSAS

CITY           SKY/WX    TMP DP  RH WIND       PRES   REMARKS
BATESVILLE     CLOUDY    79  73  83 W3        29.98R
FLIPPIN        CLOUDY    77  72  83 N3        29.96F
MTN HOME       CLOUDY    75  74  96 E3        29.99S
$$

ARZ040-041-270300-
WEST CENTRAL ARKANSAS

CITY           SKY/WX    TMP DP  RH WIND       PRES   REMARKS
MENA           CLOUDY    81  77  89 SW6       29.97S THUNDER HX  88
MOUNT IDA      CLEAR     82  73  74 CALM      29.93R HX  87
$$

ARZ009-017-025-026-028-270300-
NORTHEAST ARKANSAS

CITY           SKY/WX    TMP DP  RH WIND       PRES   REMARKS
CORNING          N/A     79  79 100 NE6       29.97F
JONESBORO      CLOUDY    79  74  84 E6        29.95S
NEWPORT        CLOUDY    82  74  77 CALM      29.96R HX  88
WALNUT RIDGE   CLOUDY    79  72  78 N3        29.96S
BLYTHEVILLE    MOCLDY    79  76  90 N9        29.97R
$$

ARZ022-023-033-042-044-270300-
CENTRAL ARKANSAS

CITY           SKY/WX    TMP DP  RH WIND       PRES   REMARKS
LITTLE ROCK    PTCLDY    88  72  58 SE5       29.93R HX  94
N LITTLE ROCK    N/A     82  71  68 CALM      29.91R HX  87
JACKSONVILLE   CLEAR     84  75  75 NE2       29.93R HX  91
SEARCY         PTCLDY    82  75  79 CALM      29.95R HX  89
HOT SPRINGS    CLEAR     85  71  63 E6        29.94R HX  90
RUSSELLVILLE   MOCLDY    79  73  82 CALM      29.94R
$$

ARZ036-270300-
EAST ARKANSAS

CITY           SKY/WX    TMP DP  RH WIND       PRES   REMARKS
WEST MEMPHIS   PTCLDY    73  72  96 NW3       29.94R
$$

ARZ050-053-066-070-073-270300-
SOUTHWEST ARKANSAS

CITY           SKY/WX    TMP DP  RH WIND       PRES   REMARKS
CAMDEN         CLEAR     77  73  88 CALM      29.91S
TEXARKANA      CLEAR     85  71  63 SE5       29.91R HX  90
EL DORADO      CLEAR     81  73  76 CALM      29.92R HX  86
DE QUEEN       PTCLDY    83  75  77 CALM      29.89R HX  90
$$

ARZ056-057-069-270300-
SOUTHEAST ARKANSAS

CITY           SKY/WX    TMP DP  RH WIND       PRES   REMARKS
PINE BLUFF     CLEAR     83  74  74 CALM      29.92R HX  89
STUTTGART      CLEAR     90  70  51 E3        29.93S HX  95
MONTICELLO     CLEAR     83  77  82 CALM      29.91S HX  92

$$






USA.gov is the U.S. government's official web portal to all federal, state and local government web resources and services.